Location: Valley of Enchantment
(34.2467°N, 117.3048°W)
Time: 13:53:02
(UTC+00:00)

Daily predictions for brighter satellites

Satellite Brightness Start Highest point End
(mag) Time Altitude Azimuth Time Altitude Azimuth Time Altitude Azimuth
Cosmos 1867 3.5 12:03:58 26° SW 12:07:03 73° WNW 12:12:32 10° NNE
Cosmos 1666 3.5 12:10:49 10° NNW 12:12:49 27° NW 12:12:49 27° NW
Cosmos 2322 Rocket 2.2 12:09:02 10° NNW 12:14:36 59° WSW 12:20:06 10° S
DELTA 2 R/B (1) 4.2 12:12:36 20° WNW 12:16:17 49° N 12:21:41 10° ENE
ARGOS 3.8 12:16:16 10° NNE 12:21:32 58° E 12:26:48 10° S
NOSS 3-2 (C) 3.3 12:18:09 10° SSW 12:23:03 69° ESE 12:28:38 10° NE
Cosmos 2219 Rocket 2.7 12:18:41 10° NNW 12:24:16 63° ENE 12:29:47 10° SSE
Cosmos 1862 4.2 12:22:22 10° NW 12:25:29 25° W 12:26:08 24° WSW
Cosmos 1758 Rocket 4.3 12:21:50 10° NNW 12:25:41 30° W 12:29:29 10° SSW
Chandra Rocket (1) 3.1 12:23:50 22° WSW 12:26:00 46° S 12:35:02 10° ESE
Cosmos 468 Rocket 3.9 12:21:31 10° NNW 12:26:45 80° WSW 12:31:59 10° SSE
Cosmos 2333 Rocket 2.2 12:22:11 10° NNW 12:27:48 61° WSW 12:33:21 10° S
Cosmos 1602 3.4 12:27:37 10° NNW 12:31:06 64° W 12:34:34 10° S
Cosmos 2058 Rocket 3.7 12:27:30 10° S 12:31:49 60° E 12:36:12 10° NNE
Cosmos 540 Rocket 3.5 12:30:12 10° NNW 12:35:11 53° WSW 12:40:08 10° S
SL-16 R/B 3.3 12:31:19 10° NW 12:35:30 22° W 12:39:40 10° SSW
Cosmos 1818 3.7 12:32:08 10° NW 12:37:24 51° WSW 12:42:37 10° S
Cosmos 1484 Rocket 2.7 12:35:48 10° N 12:39:28 60° WNW 12:43:10 10° SSW
Thor Agena Rocket 4.0 12:35:04 10° N 12:39:52 41° WNW 12:44:42 10° SW
H-2A R/B 3.9 12:38:31 10° NNE 12:41:13 33° E 12:43:55 10° SSE
Cosmos 1726 Rocket 3.8 12:39:11 10° SSW 12:43:17 44° W 12:47:26 10° N
Cosmos 1763 Rocket 4.2 12:40:32 10° NW 12:45:00 30° W 12:49:29 10° SSW
Cosmos 1850 Rocket 4.0 12:42:32 10° SSW 12:47:45 76° WNW 12:53:03 10° NNE
CZ-2C R/B 4.1 12:46:23 10° NW 12:48:44 14° WNW 12:50:54 10° W
Cosmos 1515 3.8 12:47:55 10° S 12:51:15 66° E 12:54:37 10° NNE
Cosmos 1939 Rocket 3.3 12:47:49 10° N 12:51:32 40° WNW 12:55:15 10° SW
Cosmos 1378 3.0 12:52:12 10° S 12:55:16 69° E 12:58:22 10° NNE
Cosmos 2151 2.9 12:51:41 10° NNW 12:55:44 57° W 12:59:47 10° S
NOSS 3-2 (A) 4.4 12:55:00 10° W 12:59:12 25° NW 13:03:54 10° N
SME Rocket 3.5 12:56:53 10° N 13:00:19 35° WNW 13:04:02 10° SW
Cosmos 1238 Rocket 3.9 12:56:33 10° S 13:01:52 77° E 13:07:36 10° N
COSMO-SKYMED 1 3.1 12:57:59 10° SSE 13:02:16 66° ENE 13:06:35 10° N
Atlas Centaur 2 2.9 12:59:22 10° WSW 13:05:12 58° S 13:12:26 10° E
ATLAS 5 CENTAUR R/B 4.3 13:10:31 10° W 13:30:32 30° SW 13:36:57 10° SSE
